• In India
  • List of Countries
  • For 7 days
  • Water Temperature
  • Satellite Maps
  • Weather Map
  • Weather Widgets
  • user-avatar
    Login

    Hourly Weather Kaprun

    Today, 19 December, Wednesday

    Time Temperature Precipitation Wind Pressure Humidity
    00:00 -10°C° 0 mm 2 mps 595 mmHg 60%
    01:00 -10°C° 0 mm 1 mps 594 mmHg 60%
    02:00 -12°C° 0 mm 2 mps 594 mmHg 58%
    03:00 -10°C° 0 mm 2 mps 594 mmHg 57%
    04:00 -10°C° 0 mm 2 mps 594 mmHg 55%
    05:00 -10°C° 0 mm 2 mps 594 mmHg 55%
    06:00 -9°C° 0 mm 2 mps 594 mmHg 55%
    07:00 -8°C° 0 mm 1 mps 594 mmHg 63%
    08:00 -7°C° 0 mm 1 mps 595 mmHg 63%
    09:00 -6°C° 0 mm 1 mps 596 mmHg 63%
    10:00 -4°C° 0 mm 1 mps 596 mmHg 64%
    11:00 -3°C° 0 mm 1 mps 596 mmHg 66%
    12:00 -2°C° 0 mm 1 mps 596 mmHg 68%
    13:00 -2°C° 0 mm 1 mps 596 mmHg 70%
    14:00 -3°C° 0 mm 1 mps 595 mmHg 72%
    15:00 -3°C° 0 mm 1 mps 594 mmHg 74%
    16:00 -4°C° 0 mm 1 mps 594 mmHg 76%
    17:00 -7°C° 0 mm 1 mps 593 mmHg 76%
    18:00 -9°C° 0 mm 2 mps 593 mmHg 76%
    19:00 -10°C° 0 mm 2 mps 592 mmHg 75%
    20:00 -10°C° 0 mm 2 mps 592 mmHg 76%
    21:00 -10°C° 0 mm 2 mps 592 mmHg 77%
    22:00 -10°C° 0 mm 2 mps 592 mmHg 78%
    23:00 -10°C° 0.1 mm 2 mps 592 mmHg 80%

    Tomorrow, 20 December, Thursday

    Time Temperature Precipitation Wind Pressure Humidity
    00:00 -10°C° 0.1 mm 2 mps 592 mmHg 82%
    01:00 -10°C° 0.1 mm 2 mps 592 mmHg 84%
    02:00 -8°C° 0.4 mm 1 mps 593 mmHg 87%
    03:00 -8°C° 0.4 mm 1 mps 593 mmHg 90%
    04:00 -7°C° 0.4 mm 1 mps 593 mmHg 93%
    05:00 -7°C° 0.5 mm 1 mps 593 mmHg 93%
    06:00 -7°C° 0.5 mm 1 mps 594 mmHg 93%
    07:00 -6°C° 0.5 mm 1 mps 594 mmHg 94%
    08:00 -6°C° 0.4 mm 1 mps 594 mmHg 93%
    09:00 -4°C° 0.4 mm 1 mps 595 mmHg 92%
    10:00 -4°C° 0.4 mm 1 mps 595 mmHg 92%
    11:00 -3°C° 0.2 mm 1 mps 595 mmHg 91%
    12:00 -3°C° 0.2 mm 1 mps 595 mmHg 90%
    13:00 -2°C° 0.2 mm 1 mps 595 mmHg 89%
    14:00 -3°C° 0.1 mm 1 mps 595 mmHg 90%
    15:00 -3°C° 0.1 mm 1 mps 595 mmHg 91%
    16:00 -4°C° 0.1 mm 1 mps 595 mmHg 93%
    17:00 -4°C° 0.1 mm 1 mps 596 mmHg 92%
    18:00 -6°C° 0.1 mm 1 mps 596 mmHg 91%
    19:00 -7°C° 0.1 mm 1 mps 596 mmHg 91%
    20:00 -7°C° 0 mm 1 mps 596 mmHg 90%
    21:00 -8°C° 0 mm 1 mps 595 mmHg 89%
    22:00 -9°C° 0 mm 1 mps 595 mmHg 89%
    23:00 -9°C° 0 mm 1 mps 595 mmHg 88%

    Day after tomorrow, 21 December, Friday

    Time Temperature Precipitation Wind Pressure Humidity
    00:00 -9°C° 0 mm 1 mps 595 mmHg 87%
    01:00 -9°C° 0 mm 1 mps 595 mmHg 86%
    02:00 -9°C° 0 mm 1 mps 595 mmHg 85%
    03:00 -10°C° 0 mm 2 mps 595 mmHg 85%
    04:00 -10°C° 0 mm 2 mps 595 mmHg 84%
    05:00 -10°C° 0 mm 2 mps 595 mmHg 83%
    06:00 -10°C° 0 mm 2 mps 595 mmHg 81%
    07:00 -10°C° 0 mm 2 mps 595 mmHg 80%
    08:00 -8°C° 0 mm 2 mps 595 mmHg 79%
    09:00 -7°C° 0 mm 2 mps 595 mmHg 77%
    10:00 -7°C° 0 mm 3 mps 596 mmHg 76%
    11:00 -6°C° 0 mm 3 mps 596 mmHg 77%
    12:00 -5°C° 0 mm 3 mps 595 mmHg 78%
    13:00 -5°C° 0 mm 3 mps 595 mmHg 79%
    14:00 -5°C° 0.2 mm 3 mps 595 mmHg 80%
    15:00 -5°C° 0.2 mm 3 mps 595 mmHg 81%
    16:00 -6°C° 0.2 mm 3 mps 594 mmHg 82%
    17:00 -5°C° 0.3 mm 2 mps 595 mmHg 81%
    18:00 -5°C° 0.3 mm 2 mps 595 mmHg 80%
    19:00 -5°C° 0.3 mm 2 mps 595 mmHg 79%
    20:00 -4°C° 0.1 mm 2 mps 595 mmHg 80%
    21:00 -4°C° 0.1 mm 2 mps 595 mmHg 81%
    22:00 -4°C° 0.1 mm 2 mps 595 mmHg 81%
    23:00 -4°C° 0.1 mm 2 mps 595 mmHg 81%

    22 December, Saturday

    Time Temperature Precipitation Wind Pressure Humidity
    00:00 -4°C° 0.1 mm 2 mps 595 mmHg 81%
    01:00 -4°C° 0.1 mm 2 mps 595 mmHg 81%
    02:00 -4°C° 0 mm 2 mps 595 mmHg 81%
    03:00 -4°C° 0 mm 2 mps 594 mmHg 80%
    04:00 -4°C° 0 mm 2 mps 594 mmHg 79%
    05:00 -4°C° 0 mm 2 mps 594 mmHg 80%
    06:00 -4°C° 0 mm 2 mps 595 mmHg 81%
    07:00 -2°C° 0 mm 1 mps 595 mmHg 82%
    08:00 -1°C° 0 mm 1 mps 595 mmHg 83%
    09:00 -1°C° 0 mm 1 mps 595 mmHg 84%
    10:00 0°C° 0 mm 1 mps 596 mmHg 86%
    11:00 0°C° 0 mm 1 mps 596 mmHg 88%
    12:00 +1°C° 0 mm 1 mps 596 mmHg 91%
    13:00 +2°C° 0 mm 1 mps 596 mmHg 93%
    14:00 +1°C° 0.2 mm 1 mps 596 mmHg 93%
    15:00 -2°C° 0.2 mm 2 mps 596 mmHg 94%
    16:00 -3°C° 0.2 mm 2 mps 596 mmHg 94%
    17:00 -3°C° 0.5 mm 2 mps 596 mmHg 94%
    18:00 -3°C° 0.5 mm 2 mps 596 mmHg 94%
    19:00 -4°C° 0.5 mm 2 mps 597 mmHg 94%
    20:00 -4°C° 0.5 mm 2 mps 597 mmHg 94%
    21:00 -4°C° 0.5 mm 2 mps 597 mmHg 94%
    22:00 -4°C° 0.5 mm 2 mps 597 mmHg 94%
    23:00 -4°C° 0.5 mm 2 mps 597 mmHg 94%

    23 December, Sunday

    Time Temperature Precipitation Wind Pressure Humidity
    00:00 -4°C° 0.5 mm 2 mps 597 mmHg 93%
    01:00 -5°C° 0.5 mm 2 mps 597 mmHg 93%
    02:00 -5°C° 0.3 mm 2 mps 597 mmHg 92%
    03:00 -5°C° 0.3 mm 2 mps 597 mmHg 91%
    04:00 -5°C° 0.3 mm 2 mps 597 mmHg 90%
    05:00 -5°C° 0.3 mm 2 mps 597 mmHg 90%
    06:00 -2°C° 0.3 mm 1 mps 597 mmHg 90%
    07:00 -2°C° 0.3 mm 1 mps 598 mmHg 90%
    08:00 -1°C° 0.7 mm 1 mps 598 mmHg 90%
    09:00 -1°C° 0.7 mm 1 mps 598 mmHg 91%
    10:00 -1°C° 0.7 mm 1 mps 599 mmHg 92%
    11:00 0°C° 1 mm 1 mps 598 mmHg 93%
    12:00 0°C° 1 mm 1 mps 598 mmHg 94%
    13:00 0°C° 1 mm 1 mps 598 mmHg 95%
    14:00 -1°C° 0.9 mm 1 mps 598 mmHg 95%
    15:00 -1°C° 0.9 mm 1 mps 598 mmHg 95%
    16:00 -1°C° 0.9 mm 1 mps 597 mmHg 95%
    17:00 -2°C° 0.8 mm 1 mps 598 mmHg 95%
    18:00 -2°C° 0.8 mm 1 mps 598 mmHg 95%
    19:00 -2°C° 0.8 mm 1 mps 598 mmHg 95%
    20:00 -2°C° 1 mm 1 mps 598 mmHg 94%
    21:00 -2°C° 1 mm 1 mps 598 mmHg 94%
    22:00 -2°C° 1 mm 1 mps 599 mmHg 94%
    23:00 -2°C° 0.5 mm 1 mps 598 mmHg 94%

    24 December, Monday

    Time Temperature Precipitation Wind Pressure Humidity
    00:00 -2°C° 0.5 mm 1 mps 598 mmHg 94%
    01:00 -3°C° 0.5 mm 1 mps 598 mmHg 93%
    02:00 -2°C° 0.7 mm 1 mps 598 mmHg 93%
    03:00 -2°C° 0.7 mm 1 mps 598 mmHg 93%
    04:00 -2°C° 0.7 mm 1 mps 598 mmHg 93%
    05:00 -2°C° 1.5 mm 1 mps 598 mmHg 94%
    06:00 -2°C° 1.5 mm 1 mps 598 mmHg 94%
    07:00 -4°C° 1.5 mm 2 mps 598 mmHg 95%
    08:00 -4°C° 1.1 mm 2 mps 598 mmHg 95%
    09:00 -4°C° 1.1 mm 2 mps 598 mmHg 95%
    10:00 -4°C° 1.1 mm 2 mps 599 mmHg 95%
    11:00 -4°C° 1 mm 2 mps 599 mmHg 95%
    12:00 -4°C° 1 mm 2 mps 599 mmHg 95%
    13:00 -4°C° 1 mm 2 mps 599 mmHg 94%
    14:00 -4°C° 0.5 mm 2 mps 599 mmHg 95%
    15:00 -5°C° 0.5 mm 2 mps 599 mmHg 95%
    16:00 -5°C° 0.5 mm 2 mps 599 mmHg 95%
    17:00 -6°C° 0.2 mm 2 mps 599 mmHg 95%
    18:00 -6°C° 0.2 mm 2 mps 599 mmHg 95%
    19:00 -6°C° 0.2 mm 2 mps 599 mmHg 95%
    20:00 -7°C° 0 mm 2 mps 600 mmHg 95%
    21:00 -7°C° 0 mm 2 mps 600 mmHg 94%
    22:00 -8°C° 0 mm 2 mps 600 mmHg 94%
    23:00 -8°C° 0 mm 2 mps 599 mmHg 92%
    Show more